CZ-6A DEB, 60983

Orbit data source: Space-Track

CZ-6A DEB, 60983 is space debris in LEO originally from a launch on Tue, 06 Aug 2024 UTC launched from the Taiyaun Space Center, China (TSC). Debris objects in space refer to the collection of defunct objects orbiting the Earth. Examples of debris include non-operational satellites, rocket bodies, and fragments generated from explosions, collisions, or faulty payload assembly.

Loading next visibility...
Identifier
60983, 2024-140MJ
Orbit
LEO
Country
Flag of CNCN / PRC
Related business
Manufacturer
SAST
Mission
Spacecraft
Bus & Motor
Unknown
Mass
Unknown
Launch date (UTC)
2024-08-06 (2 years ago)
Launch vehicle
Unknown
Launch site
Taiyaun Space Center, China (TSC)
Object type
Payload
Rocket body
Debris
Shape & HBR
Unknown shape, 0.2 m
Radar Cross Section
Medium (>0.1 m² and <1 m²)

Expand to show TLE details & history
Last TLE update: 15 hours ago

TLE from 15 hours ago
0 CZ-6A DEB
1 60983U 24140MJ  26171.21905117  .00000864  00000-0  25152-3 0  9996
2 60983  88.7847 253.5651 0051543 308.0708  51.5850 14.42614274 96173
Epoch: 2026-06-20T05:15Z
TLE epoch observation values (Epoch: 2026-06-20T05:15:26.021Z)
Latitude
-0.00001°
Longitude
-93.73014°
Altitude
730.242 km
Speed
7.502 km/s
True Right ascension
16h 54m 15s
True Declination
0° 00' 00"
Sunlit
Object was in full shadow at epoch
Visualization orbit readout
Latitude
Unknown
Longitude
Unknown
Altitude
Unknown
Speed
Unknown
Apparent Right ascension
Unknown
Apparent Declination
Unknown
Sunlit
N/A
Visualization observer readout
Local Sidereal Time
07:24:16
Azimuth
Unknown
Elevation
Unknown
Doppler factor
Unknown
Orbital elements
Apogee altitude
783.518 km
Perigee altitude
710.07 km
Semi-major axis
7,124.931 km
Eccentricity
0.00515
Inclination
88.7847°
RAAN
253.5651°
Arg. of periapsis
308.0708°
True anomaly
52.04964°
Mean anomaly
51.585°
Eccentric anomaly
51.81713°
Mean motion
3.60888 °/min
Orbital period
99.75 mins
BSTAR
0.00025152
Loading maneuver chart data...
Computing Atmospheric mass density...
Loading historical data...
Loading historical data...
Loading historical data...
Loading historical data...
Loading historical data...
Loading historical data...
Loading historical data...

Documentation

Showing up to 5 results
|